TimeEST,TemperatureF,Dew PointF,Humidity,Sea Level PressureIn,VisibilityMPH,Wind Direction,Wind SpeedMPH,Gust SpeedMPH,PrecipitationIn,Events,Conditions,WindDirDegrees,DateUTC
12:54 AM,63.0,57.0,81,29.77,10.0,Calm,Calm,-,N/A,,Overcast,0,2012-12-11 05:54:00
1:54 AM,63.0,57.9,84,29.78,10.0,Calm,Calm,-,N/A,,Overcast,0,2012-12-11 06:54:00
2:54 AM,64.0,59.0,84,29.78,10.0,WSW,4.6,-,N/A,,Overcast,240,2012-12-11 07:54:00
3:54 AM,63.0,60.1,90,29.79,10.0,WSW,3.5,-,N/A,,Overcast,250,2012-12-11 08:54:00
4:54 AM,59.0,57.9,96,29.80,7.0,West,3.5,-,N/A,,Clear,280,2012-12-11 09:54:00
5:54 AM,59.0,57.9,96,29.81,5.0,Calm,Calm,-,N/A,,Clear,0,2012-12-11 10:54:00
6:38 AM,57.2,57.2,100,29.84,1.8,Calm,Calm,-,N/A,,Clear,0,2012-12-11 11:38:00
6:40 AM,57.2,57.2,100,29.84,1.0,WSW,3.5,-,N/A,,Clear,250,2012-12-11 11:40:00
6:54 AM,57.0,57.0,100,29.85,1.0,WSW,3.5,-,N/A,,Clear,250,2012-12-11 11:54:00
7:00 AM,57.2,57.2,100,29.85,0.5,WSW,3.5,-,N/A,Fog,Fog,240,2012-12-11 12:00:00
7:33 AM,57.2,57.2,100,29.86,1.2,WSW,5.8,-,N/A,,Partly Cloudy,240,2012-12-11 12:33:00
7:41 AM,57.2,57.2,100,29.87,2.0,WSW,5.8,-,N/A,,Clear,240,2012-12-11 12:41:00
7:54 AM,57.9,57.9,100,29.88,3.0,SW,5.8,-,N/A,,Clear,230,2012-12-11 12:54:00
8:54 AM,60.1,59.0,96,29.91,4.0,WSW,5.8,-,N/A,,Clear,240,2012-12-11 13:54:00
9:54 AM,63.0,59.0,87,29.94,7.0,SW,6.9,-,N/A,,Clear,230,2012-12-11 14:54:00
10:54 AM,64.9,57.9,78,29.94,10.0,SW,5.8,-,N/A,,Mostly Cloudy,230,2012-12-11 15:54:00
11:54 AM,66.0,57.0,73,29.94,9.0,WSW,8.1,-,N/A,,Overcast,250,2012-12-11 16:54:00
12:54 PM,66.9,55.9,68,29.91,10.0,SW,12.7,18.4,N/A,,Mostly Cloudy,230,2012-12-11 17:54:00
1:54 PM,66.9,54.0,63,29.93,10.0,SSW,8.1,-,N/A,,Overcast,210,2012-12-11 18:54:00
2:54 PM,66.0,54.0,65,29.94,10.0,SW,9.2,-,N/A,,Overcast,220,2012-12-11 19:54:00
3:54 PM,66.0,55.0,68,29.95,10.0,WSW,9.2,-,N/A,,Overcast,240,2012-12-11 20:54:00
4:54 PM,64.0,55.0,73,29.98,10.0,SW,4.6,-,N/A,,Overcast,230,2012-12-11 21:54:00
5:54 PM,63.0,55.0,75,29.99,10.0,Calm,Calm,-,N/A,,Mostly Cloudy,0,2012-12-11 22:54:00
6:54 PM,60.1,55.9,86,30.00,10.0,Calm,Calm,-,N/A,,Mostly Cloudy,0,2012-12-11 23:54:00
7:54 PM,60.1,46.0,60,30.03,10.0,North,9.2,-,N/A,,Mostly Cloudy,360,2012-12-12 00:54:00
8:54 PM,57.9,39.9,51,30.04,10.0,NE,9.2,-,N/A,,Overcast,40,2012-12-12 01:54:00
9:54 PM,57.0,41.0,55,30.08,10.0,NNE,5.8,-,N/A,,Overcast,20,2012-12-12 02:54:00
10:54 PM,57.0,42.1,57,30.09,10.0,North,8.1,-,N/A,,Mostly Cloudy,10,2012-12-12 03:54:00
11:54 PM,55.0,46.9,74,30.06,10.0,ENE,10.4,-,0.00,,Mostly Cloudy,70,2012-12-12 04:54:00